Home   Weather   Chico   Past weeks

Flag for USA Past Weather in Chico, California, USA — Yesterday and Last 2 Weeks

Now
37 °F

Clear.


Feels Like: 37 °F
Forecast: 37 / 58 °F
Wind: No wind

Location: Chico Municipal

Current Time: Feb 28, 2017 at 6:59:20 am

Latest Report: Feb 28, 2017 at 5:35 am


Visibility: 10 mi

Pressure: 30.11 "Hg

Humidity: 81%

Dew Point: 32 °F

Location of ChicoLocation

Past Weather in Chico — Graph

°F

Chico Temperature Yesterday

Maximum temperature yesterday: 54 °F (at 2:47 pm)
Minimum temperature yesterday: 37 °F (at 6:50 am)
Average temperature yesterday: 45 °F

High & Low Weather Summary for the Past Weeks

 TemperatureHumidityPressure
High64 °F (Feb 14, 2:47 pm)100% (Feb 14, 3:55 am)30.29 "Hg (Feb 14, 3:55 am)
Low32 °F (Feb 23, 4:55 am)35% (Feb 23, 3:55 pm)29.28 "Hg (Feb 17, 4:55 pm)
Average48 °F79%29.97 "Hg
* Reported Feb 13 5:15 am — Feb 28 5:35 am, Chico, Weather by CustomWeather, © 2017

Note: Actual official high and low records may vary slightly from our data, if they occured in-between our weather recording intervals... More about our weather records

Advertising

Chico Weather History for the Previous 24 Hours

Scroll right to see more
 ConditionsComfort  
Time TempWeatherWind HumidityBarometerVisibility
5:35 am
Tue, Feb 28
37 °FClear.No wind81%30.11 "Hg10 mi
5:15 am37 °FClear.No wind81%30.10 "Hg10 mi
4:55 am37 °FClear.No wind75%30.09 "Hg10 mi
4:35 am36 °FClear.No wind81%30.08 "Hg10 mi
3:55 am39 °FClear.6 mph70%30.06 "Hg10 mi
3:15 am39 °FClear.6 mph75%30.06 "Hg10 mi
2:55 am39 °FClear.5 mph75%30.06 "Hg10 mi
2:15 am43 °FClear.6 mph57%30.05 "Hg10 mi
1:55 am43 °FClear.3 mph57%30.05 "Hg10 mi
1:15 am43 °FClear.No wind66%30.04 "Hg10 mi
12:55 am41 °FPassing clouds.No wind70%30.03 "Hg10 mi
12:15 am43 °FOvercast.6 mph66%30.02 "Hg10 mi
11:55 pm
Mon, Feb 27
43 °FPassing clouds.5 mph66%30.02 "Hg10 mi
11:15 pm45 °FPassing clouds.No wind61%30.01 "Hg10 mi
10:35 pm43 °FPartly cloudy.3 mph66%30.00 "Hg10 mi
9:55 pm45 °FOvercast.7 mph61%30.00 "Hg10 mi
9:35 pm45 °FMostly cloudy.No wind61%29.99 "Hg10 mi
8:55 pm45 °FPassing clouds.No wind61%29.98 "Hg10 mi
8:15 pm46 °FOvercast.No wind57%29.98 "Hg10 mi
7:35 pm46 °FOvercast.No wind57%29.96 "Hg10 mi
6:55 pm48 °FPartly cloudy.No wind43%29.95 "Hg10 mi
6:15 pm50 °FPassing clouds.3 mph37%29.95 "Hg10 mi
5:55 pm52 °FPartly sunny.3 mph35%29.94 "Hg10 mi
5:15 pm52 °FOvercast.5 mph35%29.94 "Hg10 mi
4:55 pm54 °FOvercast.6 mph35%29.94 "Hg10 mi
2:47 pm54 °FPartly sunny.9 mph35%29.95 "Hg40 mi
1:50 pm52 °FScattered clouds.9 mph38%29.96 "Hg40 mi
12:47 pm50 °FScattered clouds.9 mph47%29.98 "Hg40 mi
10:47 am48 °FScattered clouds.12 mph54%30.01 "Hg10 mi
9:50 am46 °FScattered clouds.No wind66%30.00 "Hg80 mi
8:50 am39 °FScattered clouds.No wind87%30.00 "Hg10 mi
7:55 am37 °FScattered clouds.No wind87%29.98 "Hg10 mi
6:50 am37 °FScattered clouds.3 mph81%29.95 "Hg10 mi
Weather by CustomWeather, © 2017

See weather overviewHow to use our weather pages